Weather History for Spirit of St Louis, MO

Change the Weather History Date:

Monday, February 18, 2013

  Actual Average Record
Temperature  
Mean Temperature 45 °F -  
Max Temperature 57 °F 45 °F 68 °F (1997)
Min Temperature 33 °F 27 °F 5 °F (2006)
Degree Days  
Heating Degree Days 20    
Moisture  
Dew Point 38 °F    
Average Humidity 71    
Maximum Humidity 88    
Minimum Humidity 57    
Precipitation  
Precipitation 0.12 in - - ()
Sea Level Pressure  
Sea Level Pressure 29.75 in    
Wind  
Wind Speed 11 mph (SW)    
Max Wind Speed 28 mph    
Max Gust Speed 36 mph    
Visibility 9 miles    
Events Rain    
Averages and records for this station are not official NWS values.
T = Trace of Precipitation, MM = Missing Value Source: NWS Daily Summary

Daily Weather History Graph

Daily Weather History Graph

Search for Another Location

Airport:

Trip Planner

Search our weather history database for the weather conditions in past years. The results will help you decide how hot, cold, wet, or windy it might be!

Date:

Astronomy

Feb. 18, 2013 Rise Set
Actual Time 6:49 AM CST 5:44 PM CST
Civil Twilight 6:22 AM CST 6:11 PM CST
Nautical Twilight 5:51 AM CST 6:42 PM CST
Astronomical Twilight 5:20 AM CST 7:12 PM CST
Moon 11:32 AM CST (2/18) 1:27 AM CST (2/18)
Length of Visible Light 11h 48m
Length of Day
10h 54m
First Quarter, 58% of the Moon is Illuminated
Feb 18
First Quarter
Feb 25
Full
Mar 4
Last Quarter
Mar 11
New
Mar 19
First Quarter

Hourly Weather History & Observations

Time (CST) Temp. Windchill Dew Point Humidity Pressure Visibility Wind Dir Wind Speed Gust Speed Precip Events Conditions
12:54 AM 37.0 °F 33.3 °F 28.9 °F 73% 29.89 in 10.0 mi ENE 4.6 mph - N/A   Clear
1:54 AM 36.0 °F - 28.9 °F 76% 29.88 in 10.0 mi Calm Calm - N/A   Clear
2:54 AM 39.9 °F 37.8 °F 30.0 °F 68% 29.85 in 10.0 mi South 3.5 mph - N/A   Clear
3:54 AM 46.0 °F 41.4 °F 33.1 °F 61% 29.83 in 10.0 mi South 9.2 mph - N/A   Clear
4:54 AM 46.0 °F 41.9 °F 34.0 °F 63% 29.81 in 10.0 mi SSW 8.1 mph - N/A   Clear
5:54 AM 46.0 °F 42.5 °F 35.1 °F 66% 29.81 in 10.0 mi South 6.9 mph 18.4 mph N/A   Clear
6:54 AM 46.9 °F - 36.0 °F 66% 29.80 in 10.0 mi SSW 5.8 mph - N/A   Mostly Cloudy
7:54 AM 48.9 °F - 37.0 °F 64% 29.78 in 10.0 mi SSW 8.1 mph 17.3 mph N/A   Overcast
8:54 AM 54.0 °F - 39.9 °F 59% 29.78 in 10.0 mi South 8.1 mph 23.0 mph N/A   Mostly Cloudy
9:54 AM 57.0 °F - 42.1 °F 57% 29.75 in 10.0 mi SSW 19.6 mph 33.4 mph N/A   Mostly Cloudy
10:54 AM 57.9 °F - 43.0 °F 58% 29.74 in 10.0 mi South 19.6 mph 32.2 mph N/A   Mostly Cloudy
11:54 AM 55.9 °F - 44.1 °F 64% 29.72 in 10.0 mi South 12.7 mph 31.1 mph N/A   Overcast
12:08 PM 55.4 °F - 44.6 °F 67% 29.71 in 10.0 mi SSW 19.6 mph 28.8 mph N/A   Overcast
12:54 PM 55.9 °F - 44.1 °F 64% 29.69 in 10.0 mi South 20.7 mph 32.2 mph N/A   Overcast
1:54 PM 55.0 °F - 44.1 °F 67% 29.65 in 10.0 mi South 12.7 mph 24.2 mph 0.00 in Rain Light Rain
2:54 PM 55.0 °F - 44.1 °F 67% 29.60 in 10.0 mi South 12.7 mph 24.2 mph 0.00 in   Overcast
3:54 PM 52.0 °F - 46.9 °F 83% 29.58 in 4.0 mi South 12.7 mph 20.7 mph 0.01 in Rain Light Rain
5:54 PM 51.1 °F - 46.9 °F 86% 29.56 in 6.0 mi South 12.7 mph 19.6 mph 0.07 in Rain Rain
6:03 PM 51.8 °F - 46.4 °F 82% 29.58 in 5.0 mi WSW 18.4 mph 24.2 mph 0.01 in Rain Light Rain
6:10 PM 51.8 °F - 48.2 °F 88% 29.59 in 5.0 mi West 17.3 mph - 0.03 in Rain Light Rain
6:19 PM 51.8 °F - 46.4 °F 82% 29.61 in 6.0 mi West 23.0 mph 31.1 mph 0.04 in Rain Light Rain
6:38 PM 46.4 °F 38.3 °F 42.8 °F 87% 29.65 in 10.0 mi WNW 23.0 mph 31.1 mph 0.04 in   Overcast
6:54 PM 43.0 °F 33.8 °F 37.9 °F 82% 29.68 in 10.0 mi WNW 23.0 mph 32.2 mph 0.04 in   Overcast
7:20 PM 41.0 °F 30.2 °F 35.6 °F 81% 29.71 in 10.0 mi NW 27.6 mph 35.7 mph N/A   Overcast
7:54 PM 39.9 °F 32.1 °F 34.0 °F 79% 29.76 in 10.0 mi WNW 13.8 mph 24.2 mph N/A   Overcast
8:54 PM 39.9 °F 29.0 °F 33.1 °F 77% 29.79 in 10.0 mi WNW 26.5 mph 34.5 mph N/A   Overcast
9:54 PM 36.0 °F 24.4 °F 27.0 °F 70% 29.86 in 10.0 mi WNW 23.0 mph 29.9 mph N/A   Overcast
10:54 PM 35.1 °F 24.5 °F 26.1 °F 70% 29.90 in 10.0 mi West 18.4 mph 29.9 mph N/A   Overcast
11:20 PM 33.8 °F 22.2 °F 23.0 °F 65% 29.91 in 10.0 mi West 20.7 mph 34.5 mph N/A   Overcast
11:54 PM 33.1 °F 24.9 °F 23.0 °F 66% 29.94 in 10.0 mi WNW 10.4 mph 23.0 mph N/A   Mostly Cloudy